Home   Weather   Wells   Past weeks
Flag for USA

Past Weather in Wells, Maine, USA — Yesterday and Last 2 Weeks

Now
74 °F

Clear.


Feels Like: 73 °F
Forecast: 78 / 63 °F
Wind: 3 mph from Southwest

Location: Sanford Municipal

Current Time: Jul 21, 2019 at 9:32:52 pm

Latest Report: Jul 21, 2019 at 8:56 pm


Visibility: 10 mi

Pressure: 29.76 "Hg

Humidity: 88%

Dew Point: 70 °F

Location of WellsLocation

Past Weather in Wells — Graph

°F

Wells Temperature Yesterday

Maximum temperature yesterday: 94 °F (at 2:56 pm)
Minimum temperature yesterday: 74 °F (at 1:56 am)
Average temperature yesterday: 84 °F

High & Low Weather Summary for the Past Weeks

 TemperatureHumidityPressure
High94 °F (Jul 20, 2:56 pm)100% (Jul 9, 1:56 am)30.08 "Hg (Jul 9, 1:56 am)
Low50 °F (Jul 8, 4:56 am)32% (Jul 9, 1:56 pm)29.65 "Hg (Jul 21, 12:56 pm)
Average72 °F76%29.89 "Hg
* Reported Jul 6 7:56 pm — Jul 21 7:56 pm, Wells. Weather by CustomWeather, © 2019

Note: Actual official high and low records may vary slightly from our data, if they occured in-between our weather recording intervals... More about our weather records

Advertising

Wells Weather History for the Previous 24 Hours

Scroll right to see more
 ConditionsComfort  
Time TempWeatherWind HumidityBarometerVisibility
7:56 pm
Sun, Jul 21
83 °FSunny.No wind63%29.75 "Hg10 mi
6:56 pm87 °FSunny.7 mph53%29.73 "Hg10 mi
5:56 pm89 °FSunny.8 mph53%29.71 "Hg10 mi
4:56 pm92 °FSunny.12 mph46%29.69 "Hg10 mi
3:56 pm92 °FScattered clouds.13 mph47%29.68 "Hg10 mi
2:56 pm93 °FSunny.16 mph46%29.66 "Hg10 mi
1:56 pm93 °FScattered clouds.14 mph47%29.65 "Hg10 mi
12:56 pm92 °FScattered clouds.10 mph51%29.65 "Hg10 mi
11:56 am91 °FPassing clouds.14 mph54%29.66 "Hg10 mi
10:56 am88 °FSunny.14 mph63%29.65 "Hg10 mi
9:56 am86 °FSunny.8 mph70%29.67 "Hg10 mi
8:56 am85 °FSunny.9 mph70%29.69 "Hg10 mi
7:56 am84 °FSunny.10 mph70%29.68 "Hg10 mi
6:56 am80 °FSunny.10 mph81%29.68 "Hg10 mi
5:56 am78 °FSunny.5 mph84%29.67 "Hg10 mi
4:56 am77 °FClear.6 mph90%29.67 "Hg10 mi
3:56 am77 °FClear.9 mph90%29.67 "Hg10 mi
2:56 am76 °FClear.No wind94%29.67 "Hg9 mi
1:56 am78 °FClear.3 mph87%29.68 "Hg10 mi
12:56 am79 °FClear.3 mph84%29.69 "Hg10 mi
11:56 pm
Sat, Jul 20
81 °FClear.No wind82%29.70 "Hg10 mi
10:56 pm78 °FClear.No wind90%29.71 "Hg10 mi
9:56 pm80 °FClear.3 mph87%29.72 "Hg10 mi
Weather by CustomWeather, © 2019

See weather overview